,,,PA_Meas_PMT16A,,PR_Meas_QMR101_102,,RH_Meas_QMH101,,SR_Meas_QMS101,,TA_Meas_QMH101,,GenWind,,GenWind,
date,time,status,PA,status,PR,status,RH,status,SR,status,TA,status,DirAvg,status,SpdAvg,
2014-10-19, 00:00:04,VALID,1010.62,VALID,0,INVALID,117.292,VALID,0,VALID,21.9992,VALID,96,VALID,1.2043,
2014-10-19, 00:01:04,VALID,1010.62,VALID,0.5,INVALID,119.084,VALID,0,VALID,21.9992,VALID,117,VALID,0.792578,
2014-10-19, 00:02:04,VALID,1010.68,VALID,0,INVALID,120.06,VALID,0,VALID,21.9781,VALID,100,VALID,1.08789,
2014-10-19, 00:03:04,VALID,1010.68,VALID,0,INVALID,119.412,VALID,0.112112,VALID,21.9586,VALID,80,VALID,1.90508,
2014-10-19, 00:04:04,VALID,1010.68,VALID,0,INVALID,118.824,VALID,0,VALID,21.9586,VALID,82,VALID,1.51641,
2014-10-19, 00:05:04,VALID,1010.63,VALID,0,INVALID,118.039,VALID,0,VALID,21.9992,VALID,68,VALID,1.54062,
2014-10-19, 00:06:04,VALID,1010.61,VALID,0,INVALID,116.293,VALID,0,VALID,21.9603,VALID,57,VALID,1.05273,
2014-10-19, 00:07:04,VALID,1010.59,VALID,0,INVALID,117.597,VALID,0.112112,VALID,21.9196,VALID,85,VALID,1.26406,
2014-10-19, 00:08:04,VALID,1010.55,VALID,0,INVALID,120.403,VALID,0,VALID,21.8807,VALID,81,VALID,0.738281,
2014-10-19, 00:09:04,VALID,1010.5,VALID,0.5,INVALID,124.818,VALID,0,VALID,21.8418,VALID,85,VALID,0.824219,
2014-10-19, 00:10:04,VALID,1010.47,VALID,0.5,INVALID,128.303,VALID,0.112112,VALID,21.8239,VALID,85,VALID,0.400391,
2014-10-19, 00:11:04,VALID,1010.45,VALID,0,INVALID,132.947,VALID,0,VALID,21.785,VALID,85,VALID,0.900781,
2014-10-19, 00:12:04,VALID,1010.4,VALID,0,INVALID,134.717,VALID,0,VALID,21.746,VALID,51,VALID,0.711328,
2014-10-19, 00:13:04,VALID,1010.4,VALID,0.5,INVALID,135.288,VALID,0,VALID,21.7266,VALID,51,VALID,0.139453,
2014-10-19, 00:14:04,VALID,1010.35,VALID,0.5,INVALID,134.983,VALID,0.112112,VALID,21.7071,VALID,51,VALID,0.378516,
2014-10-19, 00:15:04,VALID,1010.29,VALID,1,INVALID,134.823,VALID,0,VALID,21.6665,VALID,51,VALID,0,
2014-10-19, 00:16:04,VALID,1010.24,VALID,0.5,INVALID,134.602,VALID,0.112112,VALID,21.6876,VALID,51,VALID,0.826172,
2014-10-19, 00:17:04,VALID,1010.14,VALID,0.5,INVALID,134.282,VALID,0.112112,VALID,21.647,VALID,51,VALID,0.762891,
2014-10-19, 00:18:04,VALID,1010.05,VALID,0.5,INVALID,133.984,VALID,0,VALID,21.6487,VALID,51,VALID,0.921484,
2014-10-19, 00:19:04,VALID,1009.96,VALID,0,INVALID,133.702,VALID,0.112112,VALID,21.5886,VALID,51,VALID,0.930078,
2014-10-19, 00:20:04,VALID,1009.91,VALID,0.5,INVALID,133.42,VALID,0.112112,VALID,21.5886,VALID,51,VALID,0.887109,
2014-10-19, 00:21:04,VALID,1009.89,VALID,0,INVALID,133.085,VALID,0.112112,VALID,21.6097,VALID,51,VALID,0.569531,
2014-10-19, 00:22:04,VALID,1009.83,VALID,0,INVALID,132.558,VALID,0.112112,VALID,21.6097,VALID,51,VALID,0.779297,
2014-10-19, 00:23:04,VALID,1009.85,VALID,0,INVALID,132.2,VALID,0,VALID,21.6081,VALID,51,VALID,0.457031,
2014-10-19, 00:24:04,VALID,1009.83,VALID,0,INVALID,131.804,VALID,0.112112,VALID,21.6292,VALID,51,VALID,0.429688,
2014-10-19, 00:25:04,VALID,1009.75,VALID,0,INVALID,131.361,VALID,0.112112,VALID,21.6681,VALID,51,VALID,0.328906,
2014-10-19, 00:26:04,VALID,1009.75,VALID,0,INVALID,131.01,VALID,0.112112,VALID,21.686,VALID,51,VALID,0.340625,
2014-10-19, 00:27:04,VALID,1009.75,VALID,0.5,INVALID,130.66,VALID,0.112112,VALID,21.7249,VALID,51,VALID,0.0183594,
2014-10-19, 00:28:04,VALID,1009.75,VALID,0,INVALID,130.339,VALID,0.112112,VALID,21.746,VALID,51,VALID,0.238672,
2014-10-19, 00:29:04,VALID,1009.71,VALID,0,INVALID,130.072,VALID,0.112112,VALID,21.7444,VALID,51,VALID,0.462109,
2014-10-19, 00:30:04,VALID,1009.65,VALID,0,INVALID,129.958,VALID,0.112112,VALID,21.7444,VALID,51,VALID,0.476172,
2014-10-19, 00:31:04,VALID,1009.59,VALID,0,INVALID,129.722,VALID,0,VALID,21.7833,VALID,51,VALID,0.247266,
2014-10-19, 00:32:04,VALID,1009.52,VALID,0,INVALID,129.432,VALID,0.112112,VALID,21.8028,VALID,51,VALID,0.458594,
2014-10-19, 00:33:04,VALID,1009.48,VALID,0,INVALID,129.257,VALID,0.112112,VALID,21.8239,VALID,51,VALID,0.325,
2014-10-19, 00:34:04,VALID,1009.43,VALID,0,INVALID,129.257,VALID,0.112112,VALID,21.8028,VALID,50,VALID,0.616797,
2014-10-19, 00:35:04,VALID,1009.36,VALID,0,INVALID,129.173,VALID,0.112112,VALID,21.7833,VALID,50,VALID,0.725391,
2014-10-19, 00:36:04,VALID,1009.27,VALID,0,INVALID,129.18,VALID,0.112112,VALID,21.7833,VALID,50,VALID,0.575391,
2014-10-19, 00:37:04,VALID,1009.22,VALID,0,INVALID,129.081,VALID,0,VALID,21.8045,VALID,50,VALID,0.195313,
2014-10-19, 00:38:04,VALID,1009.13,VALID,0,INVALID,128.967,VALID,0.112112,VALID,21.8045,VALID,50,VALID,0.519141,
2014-10-19, 00:39:04,VALID,1009.07,VALID,0,INVALID,128.875,VALID,0.112112,VALID,21.7833,VALID,50,VALID,0.240234,
2014-10-19, 00:40:04,VALID,1009.07,VALID,0,INVALID,128.768,VALID,0,VALID,21.8045,VALID,50,VALID,0.641797,
2014-10-19, 00:41:04,VALID,1009.03,VALID,0,INVALID,128.776,VALID,0,VALID,21.785,VALID,50,VALID,0.564062,
2014-10-19, 00:42:04,VALID,1009.03,VALID,0,INVALID,128.784,VALID,0.112112,VALID,21.746,VALID,50,VALID,0.459375,
2014-10-19, 00:43:04,VALID,1009.01,VALID,0,INVALID,128.776,VALID,0.112112,VALID,21.7444,VALID,50,VALID,0.292969,
2014-10-19, 00:44:04,VALID,1008.93,VALID,0,INVALID,128.585,VALID,0.112112,VALID,21.7444,VALID,50,VALID,0.897656,
2014-10-19, 00:45:04,VALID,1008.91,VALID,0,INVALID,128.578,VALID,0.112112,VALID,21.7655,VALID,40,VALID,0.699219,
2014-10-19, 00:46:04,VALID,1008.9,VALID,0,INVALID,128.418,VALID,0.112112,VALID,21.7444,VALID,37,VALID,0.764063,
2014-10-19, 00:47:04,VALID,1008.84,VALID,0,INVALID,128.288,VALID,0,VALID,21.746,VALID,37,VALID,0.648438,
2014-10-19, 00:48:04,VALID,1008.81,VALID,0,INVALID,128.273,VALID,0.112112,VALID,21.7249,VALID,37,VALID,0.526953,
2014-10-19, 00:49:04,VALID,1008.76,VALID,0,INVALID,128.128,VALID,0.112112,VALID,21.746,VALID,37,VALID,0.882031,
2014-10-19, 00:50:04,VALID,1008.74,VALID,0,INVALID,128.067,VALID,0,VALID,21.746,VALID,36,VALID,0.955078,
2014-10-19, 00:51:04,VALID,1008.68,VALID,0,INVALID,127.876,VALID,0,VALID,21.746,VALID,30,VALID,0.562109,
2014-10-19, 00:52:04,VALID,1008.68,VALID,0,INVALID,127.67,VALID,0.112112,VALID,21.7444,VALID,30,VALID,0.761328,
2014-10-19, 00:53:04,VALID,1008.63,VALID,0,INVALID,127.518,VALID,0.112112,VALID,21.785,VALID,326,VALID,0.984766,
2014-10-19, 00:54:04,VALID,1008.64,VALID,0,INVALID,127.472,VALID,0,VALID,21.7639,VALID,324,VALID,0.516797,
2014-10-19, 00:55:04,VALID,1008.63,VALID,0,INVALID,127.335,VALID,0,VALID,21.8045,VALID,324,VALID,0.487891,
2014-10-19, 00:56:04,VALID,1008.64,VALID,0,INVALID,127.182,VALID,0.112112,VALID,21.8045,VALID,324,VALID,0.417188,
2014-10-19, 00:57:04,VALID,1008.62,VALID,0,INVALID,127.098,VALID,0.112112,VALID,21.8239,VALID,324,VALID,0.130859,
2014-10-19, 00:58:04,VALID,1008.64,VALID,0,INVALID,127.045,VALID,0.112112,VALID,21.7833,VALID,324,VALID,0.378125,
2014-10-19, 00:59:04,VALID,1008.64,VALID,0,INVALID,127.091,VALID,0.112112,VALID,21.7655,VALID,324,VALID,0.25625,
2014-10-19, 01:00:04,VALID,1008.63,VALID,0,INVALID,127.045,VALID,0.112112,VALID,21.7444,VALID,324,VALID,0.410547,
2014-10-19, 01:01:04,VALID,1008.66,VALID,0,INVALID,126.992,VALID,0.112112,VALID,21.7655,VALID,324,VALID,0.842578,
2014-10-19, 01:02:04,VALID,1008.69,VALID,0,INVALID,126.938,VALID,0.112112,VALID,21.746,VALID,324,VALID,0.544141,
2014-10-19, 01:03:04,VALID,1008.71,VALID,0,INVALID,126.992,VALID,0,VALID,21.7266,VALID,324,VALID,0.756641,
2014-10-19, 01:04:04,VALID,1008.7,VALID,0,INVALID,126.854,VALID,0.112112,VALID,21.7249,VALID,32,VALID,1.33203,
2014-10-19, 01:05:04,VALID,1008.73,VALID,0,INVALID,126.74,VALID,0.112112,VALID,21.7249,VALID,108,VALID,1.15273,
2014-10-19, 01:06:04,VALID,1008.74,VALID,0,INVALID,126.725,VALID,0.112112,VALID,21.7266,VALID,108,VALID,1.28437,
2014-10-19, 01:07:04,VALID,1008.7,VALID,0,INVALID,126.809,VALID,0.112112,VALID,21.6665,VALID,141,VALID,1.3332,
2014-10-19, 01:08:04,VALID,1008.67,VALID,0,INVALID,126.771,VALID,0.112112,VALID,21.6876,VALID,141,VALID,1.08945,
2014-10-19, 01:09:04,VALID,1008.61,VALID,0,INVALID,126.679,VALID,0.112112,VALID,21.686,VALID,141,VALID,0.669141,
2014-10-19, 01:10:04,VALID,1008.57,VALID,0,INVALID,126.565,VALID,0.112112,VALID,21.7266,VALID,142,VALID,0.622656,
2014-10-19, 01:11:04,VALID,1008.55,VALID,0,INVALID,126.427,VALID,0.112112,VALID,21.746,VALID,141,VALID,0.249219,
2014-10-19, 01:12:04,VALID,1008.55,VALID,0,INVALID,126.298,VALID,0.112112,VALID,21.7655,VALID,141,VALID,0.00195313,
2014-10-19, 01:13:04,VALID,1008.57,VALID,0,INVALID,126.183,VALID,0.112112,VALID,21.7655,VALID,141,VALID,0.328516,
2014-10-19, 01:14:04,VALID,1008.58,VALID,0,INVALID,126.13,VALID,0.112112,VALID,21.7655,VALID,141,VALID,0.255859,
2014-10-19, 01:15:04,VALID,1008.61,VALID,0,INVALID,126.084,VALID,0,VALID,21.7655,VALID,141,VALID,0.428125,
2014-10-19, 01:16:04,VALID,1008.6,VALID,0,INVALID,126.046,VALID,0.112112,VALID,21.7655,VALID,141,VALID,0.177734,
2014-10-19, 01:17:04,VALID,1008.58,VALID,0,INVALID,125.985,VALID,0,VALID,21.785,VALID,141,VALID,0.009375,
2014-10-19, 01:18:04,VALID,1008.65,VALID,0,INVALID,125.825,VALID,0,VALID,21.8239,VALID,141,VALID,0,
2014-10-19, 01:19:04,VALID,1008.68,VALID,0,INVALID,125.627,VALID,0.112112,VALID,21.8629,VALID,141,VALID,0.173047,
2014-10-19, 01:20:04,VALID,1008.72,VALID,0.5,INVALID,125.489,VALID,0.112112,VALID,21.8824,VALID,141,VALID,0.268359,
2014-10-19, 01:21:04,VALID,1008.71,VALID,0,INVALID,125.345,VALID,0.112112,VALID,21.9018,VALID,141,VALID,0.425781,
2014-10-19, 01:22:04,VALID,1008.75,VALID,0,INVALID,125.238,VALID,0,VALID,21.9408,VALID,141,VALID,0.386719,
2014-10-19, 01:23:04,VALID,1008.79,VALID,0,INVALID,125.123,VALID,0,VALID,21.9408,VALID,141,VALID,0.301953,
2014-10-19, 01:24:04,VALID,1008.81,VALID,0,INVALID,125.07,VALID,0.112112,VALID,21.9586,VALID,141,VALID,0.237891,
2014-10-19, 01:25:04,VALID,1008.85,VALID,0,INVALID,125.017,VALID,0,VALID,21.9797,VALID,141,VALID,0,
2014-10-19, 01:26:04,VALID,1008.9,VALID,0,INVALID,124.971,VALID,0.112112,VALID,21.9781,VALID,141,VALID,0,
2014-10-19, 01:27:04,VALID,1008.9,VALID,0,INVALID,124.872,VALID,0.112112,VALID,22.0382,VALID,141,VALID,0,
2014-10-19, 01:28:04,VALID,1008.92,VALID,0,INVALID,124.856,VALID,0.112112,VALID,22.017,VALID,141,VALID,0,
2014-10-19, 01:29:04,VALID,1008.96,VALID,0,INVALID,124.849,VALID,0.112112,VALID,22.0365,VALID,141,VALID,0.610937,
2014-10-19, 01:30:04,VALID,1008.96,VALID,0,INVALID,124.734,VALID,0.112112,VALID,22.056,VALID,141,VALID,0.621094,
2014-10-19, 01:31:04,VALID,1008.98,VALID,0,INVALID,124.651,VALID,0.112112,VALID,22.0966,VALID,141,VALID,0.949219,
2014-10-19, 01:32:04,VALID,1008.96,VALID,0,INVALID,124.544,VALID,0.112112,VALID,22.1355,VALID,141,VALID,0.93125,
2014-10-19, 01:33:04,VALID,1008.96,VALID,0,INVALID,124.361,VALID,0.112112,VALID,22.1745,VALID,141,VALID,0.908594,
2014-10-19, 01:34:04,VALID,1008.93,VALID,0,INVALID,124.277,VALID,0.112112,VALID,22.194,VALID,141,VALID,0.891406,
2014-10-19, 01:35:04,VALID,1008.91,VALID,0,INVALID,124.269,VALID,0.112112,VALID,22.2134,VALID,141,VALID,1.18008,
2014-10-19, 01:36:04,VALID,1008.85,VALID,0,INVALID,124.361,VALID,0.112112,VALID,22.1923,VALID,141,VALID,0.749609,
2014-10-19, 01:37:04,VALID,1008.88,VALID,0,INVALID,124.483,VALID,0.112112,VALID,22.1745,VALID,141,VALID,1.05039,
2014-10-19, 01:38:04,VALID,1008.88,VALID,0,INVALID,124.513,VALID,0.112112,VALID,22.194,VALID,141,VALID,0.689844,
2014-10-19, 01:39:04,VALID,1008.84,VALID,0,INVALID,124.407,VALID,0.112112,VALID,22.194,VALID,140,VALID,0.684766,
2014-10-19, 01:40:04,VALID,1008.81,VALID,0,INVALID,124.529,VALID,0.112112,VALID,22.1533,VALID,123,VALID,0.916016,
2014-10-19, 01:41:04,VALID,1008.8,VALID,0,INVALID,124.544,VALID,0,VALID,22.1745,VALID,123,VALID,0.976563,
2014-10-19, 01:42:04,VALID,1008.81,VALID,0,INVALID,124.46,VALID,0,VALID,22.194,VALID,123,VALID,0.621484,
2014-10-19, 01:43:04,VALID,1008.8,VALID,0,INVALID,124.391,VALID,0,VALID,22.194,VALID,123,VALID,0.814062,
2014-10-19, 01:44:04,VALID,1008.78,VALID,0,INVALID,124.346,VALID,0.112112,VALID,22.2134,VALID,123,VALID,1.10664,
2014-10-19, 01:45:04,VALID,1008.78,VALID,0,INVALID,124.49,VALID,0,VALID,22.1745,VALID,102,VALID,1.24492,
2014-10-19, 01:46:04,VALID,1008.76,VALID,0,INVALID,124.475,VALID,0,VALID,22.1745,VALID,102,VALID,0.648047,
2014-10-19, 01:47:04,VALID,1008.74,VALID,0,INVALID,124.445,VALID,0.112112,VALID,22.1728,VALID,102,VALID,0.796875,
2014-10-19, 01:48:04,VALID,1008.73,VALID,0,INVALID,124.483,VALID,0,VALID,22.1533,VALID,102,VALID,0.642187,
2014-10-19, 01:49:04,VALID,1008.71,VALID,0,INVALID,124.498,VALID,0.112112,VALID,22.1728,VALID,102,VALID,0.368359,
2014-10-19, 01:50:04,VALID,1008.7,VALID,0,INVALID,124.468,VALID,0.112112,VALID,22.1533,VALID,102,VALID,0.567969,
2014-10-19, 01:51:04,VALID,1008.73,VALID,0,INVALID,124.529,VALID,0.112112,VALID,22.155,VALID,102,VALID,0.952344,
2014-10-19, 01:52:04,VALID,1008.78,VALID,0,INVALID,124.544,VALID,0.112112,VALID,22.155,VALID,102,VALID,0.213672,
2014-10-19, 01:53:04,VALID,1008.77,VALID,0,INVALID,124.506,VALID,0,VALID,22.155,VALID,102,VALID,0.203516,
2014-10-19, 01:54:04,VALID,1008.8,VALID,0,INVALID,124.49,VALID,0,VALID,22.155,VALID,102,VALID,0,
2014-10-19, 01:55:04,VALID,1008.81,VALID,0,INVALID,124.49,VALID,0.112112,VALID,22.1745,VALID,102,VALID,0,
2014-10-19, 01:56:04,VALID,1008.77,VALID,0,INVALID,124.49,VALID,0,VALID,22.1533,VALID,102,VALID,0,
2014-10-19, 01:57:04,VALID,1008.79,VALID,0,INVALID,124.483,VALID,0,VALID,22.155,VALID,102,VALID,0.194922,
2014-10-19, 01:58:04,VALID,1008.8,VALID,0,INVALID,124.384,VALID,0.112112,VALID,22.155,VALID,102,VALID,0.102344,
2014-10-19, 01:59:04,VALID,1008.8,VALID,0,INVALID,124.422,VALID,0,VALID,22.1745,VALID,102,VALID,0.00195313,
2014-10-19, 02:00:04,VALID,1008.8,VALID,0,INVALID,124.407,VALID,0,VALID,22.1745,VALID,102,VALID,0,
2014-10-19, 02:01:04,VALID,1008.82,VALID,0,INVALID,124.452,VALID,0.112112,VALID,22.1745,VALID,102,VALID,0.385156,
2014-10-19, 02:02:04,VALID,1008.8,VALID,0,INVALID,124.551,VALID,0,VALID,22.1355,VALID,102,VALID,0.494922,
2014-10-19, 02:03:04,VALID,1008.78,VALID,0,INVALID,124.628,VALID,0.112112,VALID,22.1355,VALID,102,VALID,0.298438,
2014-10-19, 02:04:04,VALID,1008.76,VALID,0,INVALID,124.62,VALID,0,VALID,22.0966,VALID,102,VALID,0.320703,
2014-10-19, 02:05:04,VALID,1008.76,VALID,0,INVALID,124.681,VALID,0,VALID,22.0966,VALID,102,VALID,0.251953,
2014-10-19, 02:06:04,VALID,1008.73,VALID,0,INVALID,124.734,VALID,0.112112,VALID,22.056,VALID,102,VALID,0.034375,
2014-10-19, 02:07:04,VALID,1008.7,VALID,0,INVALID,124.673,VALID,0.112112,VALID,22.056,VALID,102,VALID,0,
2014-10-19, 02:08:04,VALID,1008.7,VALID,0,INVALID,124.635,VALID,0,VALID,22.0771,VALID,102,VALID,0.216016,
2014-10-19, 02:09:04,VALID,1008.7,VALID,0,INVALID,124.719,VALID,0.112112,VALID,22.0576,VALID,102,VALID,0.251172,
2014-10-19, 02:10:04,VALID,1008.68,VALID,0,INVALID,124.704,VALID,0.112112,VALID,22.0365,VALID,102,VALID,0,
2014-10-19, 02:11:04,VALID,1008.73,VALID,0,INVALID,124.704,VALID,0,VALID,22.017,VALID,102,VALID,0.208594,
2014-10-19, 02:12:04,VALID,1008.72,VALID,0,INVALID,124.788,VALID,0.112112,VALID,22.0187,VALID,102,VALID,0.507813,
2014-10-19, 02:13:04,VALID,1008.74,VALID,0,INVALID,124.78,VALID,0,VALID,21.9992,VALID,102,VALID,0.0429688,
2014-10-19, 02:14:04,VALID,1008.77,VALID,0,INVALID,124.788,VALID,0,VALID,21.9992,VALID,102,VALID,0,
2014-10-19, 02:15:04,VALID,1008.74,VALID,0,INVALID,124.818,VALID,0.112112,VALID,21.9797,VALID,102,VALID,0,
2014-10-19, 02:16:04,VALID,1008.77,VALID,0,INVALID,124.872,VALID,0,VALID,21.9603,VALID,102,VALID,0,
2014-10-19, 02:17:04,VALID,1008.78,VALID,0,INVALID,124.849,VALID,0.112112,VALID,21.9586,VALID,102,VALID,0,
2014-10-19, 02:18:04,VALID,1008.82,VALID,0,INVALID,124.765,VALID,0,VALID,21.9603,VALID,102,VALID,0,
2014-10-19, 02:19:04,VALID,1008.82,VALID,0,INVALID,124.78,VALID,0,VALID,21.9603,VALID,102,VALID,0.567969,
2014-10-19, 02:20:04,VALID,1008.81,VALID,0,INVALID,124.765,VALID,0,VALID,21.9603,VALID,102,VALID,0.414844,
2014-10-19, 02:21:04,VALID,1008.81,VALID,0,INVALID,124.795,VALID,0,VALID,21.9408,VALID,102,VALID,0.296875,
2014-10-19, 02:22:04,VALID,1008.83,VALID,0,INVALID,124.734,VALID,0,VALID,21.9408,VALID,102,VALID,0.545313,
2014-10-19, 02:23:04,VALID,1008.82,VALID,0,INVALID,124.765,VALID,0,VALID,21.9408,VALID,102,VALID,0.354688,
2014-10-19, 02:24:04,VALID,1008.85,VALID,0,INVALID,124.727,VALID,0,VALID,21.9213,VALID,102,VALID,0.395312,
2014-10-19, 02:25:04,VALID,1008.83,VALID,0,INVALID,124.78,VALID,0,VALID,21.923,VALID,102,VALID,0.617969,
2014-10-19, 02:26:04,VALID,1008.89,VALID,0,INVALID,124.795,VALID,0.112112,VALID,21.8807,VALID,102,VALID,0.732813,
2014-10-19, 02:27:04,VALID,1008.87,VALID,0,INVALID,124.795,VALID,0,VALID,21.8807,VALID,102,VALID,0.620703,
2014-10-19, 02:28:04,VALID,1008.86,VALID,0,INVALID,124.788,VALID,0,VALID,21.8824,VALID,102,VALID,0.517187,
2014-10-19, 02:29:04,VALID,1008.88,VALID,0,INVALID,124.765,VALID,0,VALID,21.8824,VALID,102,VALID,0.672266,
2014-10-19, 02:30:04,VALID,1008.89,VALID,0,INVALID,124.788,VALID,0,VALID,21.8824,VALID,102,VALID,0.401563,
2014-10-19, 02:31:04,VALID,1008.92,VALID,0,INVALID,124.757,VALID,0,VALID,21.8629,VALID,102,VALID,0.487891,
2014-10-19, 02:32:04,VALID,1008.92,VALID,0,INVALID,124.773,VALID,0,VALID,21.8434,VALID,102,VALID,0.590234,
2014-10-19, 02:33:04,VALID,1008.91,VALID,0,INVALID,124.826,VALID,0,VALID,21.8434,VALID,102,VALID,0.253125,
2014-10-19, 02:34:04,VALID,1008.92,VALID,0,INVALID,124.795,VALID,0,VALID,21.8434,VALID,102,VALID,0.504687,
2014-10-19, 02:35:04,VALID,1008.9,VALID,0,INVALID,124.773,VALID,0,VALID,21.8434,VALID,102,VALID,0.251563,
2014-10-19, 02:36:04,VALID,1008.9,VALID,0,INVALID,124.742,VALID,0,VALID,21.8434,VALID,102,VALID,0.430859,
2014-10-19, 02:37:04,VALID,1008.9,VALID,0,INVALID,124.696,VALID,0,VALID,21.8434,VALID,102,VALID,0.0164062,
2014-10-19, 02:38:04,VALID,1008.92,VALID,0,INVALID,124.719,VALID,0,VALID,21.8239,VALID,102,VALID,0.0679687,
2014-10-19, 02:39:04,VALID,1008.91,VALID,0,INVALID,124.795,VALID,0,VALID,21.8239,VALID,102,VALID,0,
2014-10-19, 02:40:04,VALID,1008.91,VALID,0,INVALID,124.803,VALID,0,VALID,21.8045,VALID,102,VALID,0.199609,
2014-10-19, 02:41:04,VALID,1008.87,VALID,0,INVALID,124.803,VALID,0,VALID,21.8256,VALID,102,VALID,0.133984,
2014-10-19, 02:42:04,VALID,1008.82,VALID,0,INVALID,124.834,VALID,0,VALID,21.785,VALID,102,VALID,0.345703,
2014-10-19, 02:43:04,VALID,1008.83,VALID,0,INVALID,124.834,VALID,0,VALID,21.7866,VALID,102,VALID,0.342578,
2014-10-19, 02:44:04,VALID,1008.8,VALID,0,INVALID,124.795,VALID,0,VALID,21.7655,VALID,102,VALID,0.332031,
2014-10-19, 02:45:04,VALID,1008.78,VALID,0,INVALID,124.834,VALID,0,VALID,21.7655,VALID,102,VALID,0.395312,
2014-10-19, 02:46:04,VALID,1008.76,VALID,0,INVALID,124.818,VALID,0,VALID,21.746,VALID,102,VALID,0.561719,
2014-10-19, 02:47:04,VALID,1008.78,VALID,0,INVALID,124.826,VALID,0,VALID,21.746,VALID,102,VALID,0.453125,
2014-10-19, 02:48:04,VALID,1008.77,VALID,0,INVALID,124.841,VALID,0,VALID,21.7266,VALID,102,VALID,0.191406,
2014-10-19, 02:49:04,VALID,1008.79,VALID,0,INVALID,124.834,VALID,0,VALID,21.7266,VALID,102,VALID,0.3875,
2014-10-19, 02:50:04,VALID,1008.78,VALID,0,INVALID,124.879,VALID,0.112112,VALID,21.7071,VALID,102,VALID,0.397266,
2014-10-19, 02:51:04,VALID,1008.77,VALID,0,INVALID,124.925,VALID,0,VALID,21.6876,VALID,102,VALID,0.730469,
2014-10-19, 02:52:04,VALID,1008.77,VALID,0,INVALID,124.933,VALID,0,VALID,21.6876,VALID,102,VALID,0.471484,
2014-10-19, 02:53:04,VALID,1008.75,VALID,0,INVALID,124.902,VALID,0,VALID,21.6681,VALID,102,VALID,0.703906,
2014-10-19, 02:54:04,VALID,1008.74,VALID,0,INVALID,124.948,VALID,0,VALID,21.6487,VALID,102,VALID,0.523828,
2014-10-19, 02:55:04,VALID,1008.73,VALID,0,INVALID,124.978,VALID,0,VALID,21.6487,VALID,102,VALID,0.601563,
2014-10-19, 02:56:04,VALID,1008.7,VALID,0,INVALID,124.978,VALID,0,VALID,21.6292,VALID,102,VALID,0.390625,
2014-10-19, 02:57:04,VALID,1008.73,VALID,0,INVALID,124.978,VALID,0.112112,VALID,21.6292,VALID,102,VALID,0.282031,
2014-10-19, 02:58:04,VALID,1008.71,VALID,0,INVALID,124.887,VALID,0,VALID,21.6097,VALID,102,VALID,0.119922,
2014-10-19, 02:59:04,VALID,1008.74,VALID,0,INVALID,124.849,VALID,0,VALID,21.6097,VALID,102,VALID,0.586328,
2014-10-19, 03:00:04,VALID,1008.75,VALID,0,INVALID,124.902,VALID,0,VALID,21.5902,VALID,102,VALID,0.205859,
2014-10-19, 03:01:04,VALID,1008.74,VALID,0,INVALID,124.872,VALID,0,VALID,21.6114,VALID,102,VALID,0.296484,
2014-10-19, 03:02:04,VALID,1008.74,VALID,0,INVALID,124.803,VALID,0,VALID,21.6097,VALID,102,VALID,0.0046875,
2014-10-19, 03:03:04,VALID,1008.75,VALID,0,INVALID,124.78,VALID,0,VALID,21.6114,VALID,102,VALID,0,
2014-10-19, 03:04:04,VALID,1008.74,VALID,0,INVALID,124.742,VALID,0,VALID,21.6097,VALID,102,VALID,0,
2014-10-19, 03:05:04,VALID,1008.71,VALID,0,INVALID,124.696,VALID,0,VALID,21.6308,VALID,102,VALID,0,
2014-10-19, 03:06:04,VALID,1008.68,VALID,0,INVALID,124.635,VALID,0,VALID,21.6292,VALID,102,VALID,0,
2014-10-19, 03:07:04,VALID,1008.72,VALID,0,INVALID,124.62,VALID,0.112112,VALID,21.6698,VALID,102,VALID,0,
2014-10-19, 03:08:04,VALID,1008.72,VALID,0,INVALID,124.635,VALID,0,VALID,21.6292,VALID,102,VALID,0,
2014-10-19, 03:09:04,VALID,1008.72,VALID,0,INVALID,124.689,VALID,0,VALID,21.6308,VALID,102,VALID,0,
2014-10-19, 03:10:04,VALID,1008.71,VALID,0,INVALID,124.689,VALID,0,VALID,21.6308,VALID,102,VALID,0.266797,
2014-10-19, 03:11:04,VALID,1008.69,VALID,0,INVALID,124.628,VALID,0,VALID,21.6503,VALID,102,VALID,0.153516,
2014-10-19, 03:12:04,VALID,1008.67,VALID,0,INVALID,124.597,VALID,0,VALID,21.6503,VALID,102,VALID,0,
2014-10-19, 03:13:04,VALID,1008.66,VALID,0,INVALID,124.574,VALID,0.112112,VALID,21.6681,VALID,102,VALID,0.0273438,
2014-10-19, 03:14:04,VALID,1008.68,VALID,0,INVALID,124.506,VALID,0.112112,VALID,21.6681,VALID,102,VALID,0.144141,
2014-10-19, 03:15:04,VALID,1008.69,VALID,0,INVALID,124.483,VALID,0.112112,VALID,21.6876,VALID,102,VALID,0.631641,
2014-10-19, 03:16:04,VALID,1008.69,VALID,0,INVALID,124.529,VALID,0,VALID,21.6681,VALID,102,VALID,0.486328,
2014-10-19, 03:17:04,VALID,1008.68,VALID,0,INVALID,124.536,VALID,0.112112,VALID,21.6681,VALID,102,VALID,0.594922,
2014-10-19, 03:18:04,VALID,1008.67,VALID,0,INVALID,124.452,VALID,0,VALID,21.6876,VALID,102,VALID,0.333203,
2014-10-19, 03:19:04,VALID,1008.67,VALID,0,INVALID,124.498,VALID,0.112112,VALID,21.6487,VALID,102,VALID,0.366797,
2014-10-19, 03:20:04,VALID,1008.68,VALID,0,INVALID,124.46,VALID,0.112112,VALID,21.647,VALID,102,VALID,0,
2014-10-19, 03:21:04,VALID,1008.69,VALID,0,INVALID,124.483,VALID,0.112112,VALID,21.6681,VALID,102,VALID,0.230859,
2014-10-19, 03:22:04,VALID,1008.66,VALID,0,INVALID,124.59,VALID,0.112112,VALID,21.6487,VALID,102,VALID,0.381641,
2014-10-19, 03:23:04,VALID,1008.64,VALID,0,INVALID,124.666,VALID,0.112112,VALID,21.6292,VALID,102,VALID,0.384375,
2014-10-19, 03:24:04,VALID,1008.59,VALID,0,INVALID,124.658,VALID,0,VALID,21.6097,VALID,102,VALID,0.436328,
2014-10-19, 03:25:04,VALID,1008.57,VALID,0,INVALID,124.689,VALID,0,VALID,21.6097,VALID,102,VALID,0.358594,
2014-10-19, 03:26:04,VALID,1008.52,VALID,0,INVALID,124.689,VALID,0.112112,VALID,21.5902,VALID,102,VALID,0.251953,
2014-10-19, 03:27:04,VALID,1008.54,VALID,0,INVALID,124.704,VALID,0,VALID,21.5902,VALID,102,VALID,0.167969,
2014-10-19, 03:28:04,VALID,1008.53,VALID,0,INVALID,124.651,VALID,0,VALID,21.5708,VALID,102,VALID,0.342187,
2014-10-19, 03:29:04,VALID,1008.57,VALID,0,INVALID,124.628,VALID,0.112112,VALID,21.5902,VALID,102,VALID,0.2625,
2014-10-19, 03:30:04,VALID,1008.56,VALID,0,INVALID,124.643,VALID,0,VALID,21.5497,VALID,102,VALID,0.0710938,
2014-10-19, 03:31:04,VALID,1008.57,VALID,0,INVALID,124.582,VALID,0.112112,VALID,21.5708,VALID,102,VALID,0.065625,
2014-10-19, 03:32:04,VALID,1008.59,VALID,0,INVALID,124.59,VALID,0.112112,VALID,21.5708,VALID,102,VALID,0.0753906,
2014-10-19, 03:33:04,VALID,1008.55,VALID,0,INVALID,124.612,VALID,0.112112,VALID,21.5497,VALID,102,VALID,0.129688,
2014-10-19, 03:34:04,VALID,1008.57,VALID,0,INVALID,124.689,VALID,0,VALID,21.5708,VALID,102,VALID,0.430469,
2014-10-19, 03:35:04,VALID,1008.54,VALID,0,INVALID,124.673,VALID,0.112112,VALID,21.5497,VALID,102,VALID,0.171484,